When you browse on this site, cookies collect data to enhance your experience and personalize the content and advertising you see.
Visit our Privacy Policy to learn more. By continuing to use the site, you agree to this use of cookies and data.
  • En España
  • Lista de países
  • Para 7 días
  • Temperatura del agua
  • El tiempo en el mapa
  • Informadores
  • user-avatar
    Iniciar sesión

    Tiempo cada hora Borisovschina

    Hoy, 30 Mayo, Sábado

    Tiempo Temperatura Precipitaciones Viento Presión Humedad
    00:00 +13°C° 0 mm 5 mps 745 mmHg 88%
    01:00 +13°C° 0 mm 5 mps 744 mmHg 89%
    02:00 +13°C° 0 mm 5 mps 744 mmHg 90%
    03:00 +13°C° 0 mm 5 mps 744 mmHg 91%
    04:00 +13°C° 0 mm 5 mps 744 mmHg 91%
    05:00 +13°C° 0 mm 5 mps 743 mmHg 91%
    06:00 +13°C° 0 mm 5 mps 743 mmHg 89%
    07:00 +14°C° 0 mm 6 mps 743 mmHg 87%
    08:00 +14°C° 0 mm 6 mps 743 mmHg 86%
    09:00 +14°C° 0 mm 6 mps 743 mmHg 86%
    10:00 +14°C° 0 mm 6 mps 742 mmHg 86%
    11:00 +14°C° 0 mm 6 mps 742 mmHg 87%
    12:00 +14°C° 0.8 mm 7 mps 742 mmHg 89%
    13:00 +14°C° 0.8 mm 7 mps 742 mmHg 91%
    14:00 +12°C° 0.8 mm 8 mps 742 mmHg 94%
    15:00 +12°C° 0.6 mm 8 mps 741 mmHg 94%
    16:00 +12°C° 0.6 mm 8 mps 740 mmHg 94%
    17:00 +12°C° 0.6 mm 8 mps 740 mmHg 94%
    18:00 +12°C° 0.1 mm 8 mps 740 mmHg 93%
    19:00 +13°C° 0.1 mm 9 mps 740 mmHg 92%
    20:00 +13°C° 0.1 mm 9 mps 740 mmHg 91%
    21:00 +12°C° 0.6 mm 8 mps 740 mmHg 91%
    22:00 +12°C° 0.6 mm 8 mps 740 mmHg 92%
    23:00 +12°C° 0.6 mm 8 mps 740 mmHg 92%

    Mañana, 31 Mayo, Domingo

    Tiempo Temperatura Precipitaciones Viento Presión Humedad
    00:00 +12°C° 2 mm 8 mps 740 mmHg 93%
    01:00 +11°C° 2 mm 8 mps 740 mmHg 94%
    02:00 +11°C° 2 mm 8 mps 740 mmHg 95%
    03:00 +11°C° 2.5 mm 7 mps 740 mmHg 95%
    04:00 +11°C° 2.5 mm 7 mps 740 mmHg 95%
    05:00 +10°C° 2.5 mm 7 mps 741 mmHg 95%
    06:00 +10°C° 1.4 mm 7 mps 741 mmHg 95%
    07:00 +10°C° 1.4 mm 8 mps 741 mmHg 94%
    08:00 +10°C° 1.4 mm 8 mps 742 mmHg 93%
    09:00 +10°C° 0.6 mm 7 mps 742 mmHg 91%
    10:00 +10°C° 0.6 mm 7 mps 742 mmHg 88%
    11:00 +10°C° 0.6 mm 6 mps 743 mmHg 86%
    12:00 +11°C° 0.1 mm 6 mps 743 mmHg 80%
    13:00 +14°C° 0.1 mm 6 mps 743 mmHg 73%
    14:00 +15°C° 0.1 mm 5 mps 744 mmHg 67%
    15:00 +15°C° 0.1 mm 5 mps 744 mmHg 67%
    16:00 +14°C° 0.1 mm 5 mps 744 mmHg 67%
    17:00 +14°C° 0.1 mm 5 mps 745 mmHg 67%
    18:00 +13°C° 0 mm 5 mps 745 mmHg 69%
    19:00 +12°C° 0 mm 5 mps 745 mmHg 70%
    20:00 +11°C° 0 mm 4 mps 746 mmHg 71%
    21:00 +8°C° 0 mm 4 mps 746 mmHg 72%
    22:00 +7°C° 0 mm 4 mps 746 mmHg 74%
    23:00 +6°C° 0 mm 4 mps 747 mmHg 75%

    Pasado mañana, 1 Junio, Lunes

    Tiempo Temperatura Precipitaciones Viento Presión Humedad
    00:00 +5°C° 0 mm 4 mps 747 mmHg 76%
    01:00 +5°C° 0 mm 4 mps 747 mmHg 78%
    02:00 +4°C° 0 mm 4 mps 747 mmHg 80%
    03:00 +4°C° 0 mm 4 mps 747 mmHg 79%
    04:00 +4°C° 0 mm 4 mps 747 mmHg 78%
    05:00 +4°C° 0 mm 4 mps 747 mmHg 78%
    06:00 +5°C° 0 mm 5 mps 747 mmHg 73%
    07:00 +6°C° 0 mm 5 mps 747 mmHg 69%
    08:00 +8°C° 0 mm 5 mps 747 mmHg 64%
    09:00 +8°C° 0 mm 6 mps 747 mmHg 63%
    10:00 +9°C° 0 mm 6 mps 747 mmHg 61%
    11:00 +9°C° 0 mm 6 mps 747 mmHg 59%
    12:00 +9°C° 0 mm 6 mps 747 mmHg 62%
    13:00 +9°C° 0 mm 5 mps 747 mmHg 65%
    14:00 +9°C° 0 mm 5 mps 747 mmHg 68%
    15:00 +8°C° 0.1 mm 4 mps 747 mmHg 72%
    16:00 +8°C° 0.1 mm 4 mps 747 mmHg 77%
    17:00 +8°C° 0.1 mm 4 mps 747 mmHg 82%
    18:00 +9°C° 0.1 mm 3 mps 747 mmHg 83%
    19:00 +8°C° 0.1 mm 3 mps 747 mmHg 84%
    20:00 +8°C° 0.1 mm 2 mps 748 mmHg 85%
    21:00 +8°C° 0 mm 2 mps 748 mmHg 87%
    22:00 +7°C° 0 mm 3 mps 747 mmHg 89%
    23:00 +7°C° 0 mm 3 mps 747 mmHg 90%

    2 Junio, Martes

    Tiempo Temperatura Precipitaciones Viento Presión Humedad
    00:00 +5°C° 0 mm 3 mps 747 mmHg 91%
    01:00 +5°C° 0 mm 3 mps 747 mmHg 92%
    02:00 +5°C° 0 mm 3 mps 747 mmHg 93%
    03:00 +5°C° 0 mm 3 mps 747 mmHg 91%
    04:00 +5°C° 0 mm 4 mps 747 mmHg 90%
    05:00 +5°C° 0 mm 4 mps 747 mmHg 89%
    06:00 +7°C° 0 mm 4 mps 747 mmHg 81%
    07:00 +9°C° 0 mm 5 mps 747 mmHg 74%
    08:00 +10°C° 0 mm 5 mps 747 mmHg 67%
    09:00 +13°C° 0 mm 5 mps 747 mmHg 63%
    10:00 +14°C° 0 mm 6 mps 747 mmHg 58%
    11:00 +15°C° 0 mm 6 mps 747 mmHg 54%
    12:00 +15°C° 0 mm 6 mps 746 mmHg 56%
    13:00 +15°C° 0 mm 6 mps 746 mmHg 57%
    14:00 +15°C° 0 mm 5 mps 746 mmHg 58%
    15:00 +14°C° 0 mm 5 mps 746 mmHg 62%
    16:00 +14°C° 0 mm 5 mps 745 mmHg 65%
    17:00 +13°C° 0 mm 4 mps 745 mmHg 68%
    18:00 +12°C° 0 mm 4 mps 745 mmHg 72%
    19:00 +11°C° 0 mm 4 mps 745 mmHg 76%
    20:00 +10°C° 0 mm 3 mps 745 mmHg 81%
    21:00 +10°C° 0 mm 3 mps 745 mmHg 83%
    22:00 +8°C° 0 mm 4 mps 745 mmHg 85%
    23:00 +7°C° 0 mm 4 mps 744 mmHg 87%

    3 Junio, Miércoles

    Tiempo Temperatura Precipitaciones Viento Presión Humedad
    00:00 +8°C° 0 mm 4 mps 744 mmHg 85%
    01:00 +8°C° 0 mm 5 mps 744 mmHg 83%
    02:00 +9°C° 0 mm 5 mps 743 mmHg 81%
    03:00 +9°C° 0.2 mm 5 mps 743 mmHg 85%
    04:00 +8°C° 0.2 mm 5 mps 743 mmHg 89%
    05:00 +8°C° 0.2 mm 5 mps 742 mmHg 92%
    06:00 +8°C° 0.6 mm 5 mps 742 mmHg 94%
    07:00 +9°C° 0.6 mm 5 mps 742 mmHg 95%
    08:00 +9°C° 0.6 mm 5 mps 742 mmHg 96%
    09:00 +9°C° 1 mm 5 mps 742 mmHg 96%
    10:00 +9°C° 1 mm 5 mps 742 mmHg 96%
    11:00 +10°C° 1 mm 5 mps 742 mmHg 96%
    12:00 +10°C° 0.8 mm 5 mps 742 mmHg 96%
    13:00 +12°C° 0.8 mm 5 mps 742 mmHg 96%
    14:00 +12°C° 0.8 mm 4 mps 742 mmHg 96%
    15:00 +13°C° 0.1 mm 4 mps 742 mmHg 95%
    16:00 +13°C° 0.1 mm 4 mps 741 mmHg 94%
    17:00 +14°C° 0.1 mm 4 mps 741 mmHg 93%
    18:00 +13°C° 0.2 mm 4 mps 741 mmHg 94%
    19:00 +13°C° 0.2 mm 3 mps 741 mmHg 95%
    20:00 +14°C° 0.2 mm 2 mps 741 mmHg 96%
    21:00 +13°C° 0.2 mm 2 mps 741 mmHg 97%
    22:00 +13°C° 0.2 mm 2 mps 741 mmHg 97%
    23:00 +12°C° 0.2 mm 2 mps 741 mmHg 98%

    4 Junio, Jueves

    Tiempo Temperatura Precipitaciones Viento Presión Humedad
    00:00 +12°C° 0 mm 2 mps 741 mmHg 97%
    01:00 +12°C° 0 mm 1 mps 741 mmHg 97%
    02:00 +11°C° 0 mm 1 mps 741 mmHg 96%
    03:00 +11°C° 0 mm 1 mps 741 mmHg 96%
    04:00 +11°C° 0 mm 1 mps 741 mmHg 96%
    05:00 +11°C° 0 mm 1 mps 741 mmHg 95%
    06:00 +13°C° 0 mm 1 mps 741 mmHg 91%
    07:00 +14°C° 0 mm 2 mps 741 mmHg 87%
    08:00 +15°C° 0 mm 2 mps 741 mmHg 83%
    09:00 +16°C° 0.2 mm 2 mps 741 mmHg 77%
    10:00 +17°C° 0.2 mm 3 mps 741 mmHg 72%
    11:00 +18°C° 0.2 mm 3 mps 741 mmHg 66%
    12:00 +18°C° 0.2 mm 3 mps 741 mmHg 65%
    13:00 +19°C° 0.2 mm 3 mps 741 mmHg 63%
    14:00 +19°C° 0.2 mm 3 mps 741 mmHg 61%
    15:00 +19°C° 0.1 mm 3 mps 741 mmHg 64%
    16:00 +18°C° 0.1 mm 3 mps 741 mmHg 67%
    17:00 +18°C° 0.1 mm 3 mps 741 mmHg 70%
    18:00 +17°C° 0.2 mm 2 mps 741 mmHg 77%
    19:00 +15°C° 0.2 mm 2 mps 740 mmHg 83%
    20:00 +14°C° 0.2 mm 2 mps 740 mmHg 90%
    21:00 +13°C° 0 mm 2 mps 740 mmHg 91%
    22:00 +12°C° 0 mm 2 mps 740 mmHg 92%
    23:00 +11°C° 0 mm 1 mps 740 mmHg 94%
    Mostrar más